SCP
-0 -0 -0 -0 -0 -0 -0 -0 -0 -0 -0 -0 -0 -0 -0 -0 -0 -0 0 0 0 0 0 0 0 -0 0 -0 -0 0 0 -0 -0 0 0 0 0 0 0 0 0 0 0 0 0 0 0
-0 -0 -0 -0 -0 -0 -0 -0 -0 -0 -0 -0 -0 -0 -0 -0 -0 -0 0 0 0 -0 0 0 -0 -0 -0 -0 0 0 0 -0 0 0 0 0 0 0 0 0 0 0 0 0 0 0 0
-0 -0 -0 -0 -0 -0 -0 -0 -0 -0 -0 -0 -0 -0 -0 -0 -0 -0 -0 -0 -0 -0 -0 -0 -0 -0 0 0 -0 0 0 0 0 0 0 0 0 0 0 0 0 0 0 0 0 0 0
-0 -0 -0 -0 -0 -0 -0 -0 -0 -0 -0 -0 -0 -0 -0 -0 -0 -0 -0 -0 -0 -0 -0 0 0 -0 0 -0 -0 -0 0 -0 0 0 0 -0 0 0 0 0 0 0 0 0 0 0 0
-0 -0 -0 -0 -0 -0 -0 -0 -0 -0 -0 -0 -0 -0 -0 -0 -0 -0 -0 -0 -0 0 0 -0 -0 0 -0 -0 0 0 0 0 0 0 0 0 0 0 0 0 0 0 0 0 0 0 0
0 -0 -0 -0 -0 -0 -0 -0 -0 -0 -0 -0 -0 -0 -0 -0 -0 -0 -0 -0 0 0 0 -0 -0 0 -0 0 -0 -0 0 0 0 0 0 0 0 0 0 0 0 0 0 0 0 0 0
0 -0 -0 -0 -0 -0 -0 -0 -0 -0 -0 -0 -0 -0 -0 -0 -0 -0 0 0 0 0 0 0 0 -0 -0 -0 -0 0 0 0 0 0 0 0 0 0 -0 0 0 0 0 0 0 0 0
0 -0 -0 -0 -0 -0 -0 -0 -0 -0 -0 -0 -0 -0 -0 -0 -0 -0 0 0 0 0 0 0 0 -0 0 0 0 0 0 0 0 0 0 0 0 0 0 0 0 0 0 0 0 0 0
0 0 -0 -0 -0 -0 -0 -0 -0 -0 -0 -0 -0 -0 -0 -0 0 0 0 0 -0 0 0 0 0 0 0 0 0 0 0 0 0 0 0 0 0 0 0 0 0 0 0 0 0 0 0
0 0 -0 -0 -0 -0 -0 -0 -0 -0 -0 -0 -0 -0 -0 -0 0 0 0 0 -0 0 0 0 0 0 0 0 0 0 0 0 0 0 0 0 0 0 0 0 0 0 0 0 0 0 0
0 0 0 -0 -0 -0 -0 -0 -0 -0 -0 -0 -0 -0 -0 0 0 0 0 0 0 0 0 0 0 0 0 0 0 0 0 0 0 0 0 0 0 0 0 0 0 0 0 0 0 0 0
0 0 0 -0 -0 -0 -0 -0 -0 -0 -0 -0 -0 -0 0 0 0 0 -0 -0 0 0 0 0 0 0 0 0 0 0 0 0 0 0 0 0 0 0 0 0 0 0 0 0 0 0 0
0 0 -0 -0 -0 -0 -0 -0 -0 -0 -0 -0 -0 -0 0 0 0 0 -0 0 0 0 0 0 0 0 0 0 0 0 0 0 0 0 0 0 0 0 0 0 0 0 0 0 0 0 0
-0 0 0 -0 -0 -0 -0 -0 -0 -0 -0 -0 -0 0 0 0 0 0 0 0 0 0 0 0 0 0 0 0 0 0 0 0 0 0 0 0 0 0 0 0 0 0 0 0 0 0 0
0 0 -0 -0 -0 -0 -0 -0 -0 -0 -0 -0 -0 0 0 0 0 0 0 0 0 0 0 0 0 0 0 0 0 0 0 0 0 0 0 0 0 0 0 0 0 0 0 0 0 0 0
0 0 -0 0 -0 -0 -0 -0 -0 -0 -0 -0 0 0 0 0 0 0 0 0 0 0 0 0 0 0 0 0 0 0 0 0 0 0 0 0 0 0 0 0 0 0 0 0 0 0 0
0 0 0 0 -0 -0 -0 -0 -0 -0 -0 0 0 0 0 0 0 0 0 0 0 0 0 0 0 0 0 0 0 0 0 0 0 0 0 0 0 0 0 0 0 0 0 0 0 0 0
0 0 0 0 0 -0 -0 -0 -0 -0 -0 0 0 0 0 0 0 0 0 0 0 0 0 0 0 0 0 0 0 0 0 0 0 0 0 0 0 0 0 0 0 0 0 0 0 0 0
0 0 0 0 0 0 -0 -0 -0 -0 -0 0 0 0 0 0 0 0 0 0 0 0 0 0 0 0 0 0 0 0 0 0 0 0 0 0 0 0 0 0 0 0 0 0 0 0 0
0 0 0 0 0 0 0 -0 -0 -0 -0 0 0 0 0 0 0 0 0 0 0 0 0 0 0 0 0 0 0 0 0 0 0 0 0 0 0 0 0 0 0 0 0 0 0 0 0
0 0 0 0 0 0 0 0 -0 -0 0 0 0 0 0 0 0 0 0 0 0 0 0 0 0 0 0 0 0 0 0 0 0 0 0 0 0 0 0 0 0 0 0 0 0 0 0
0 0 0 0 0 0 0 0 0 -0 0 0 0 0 0 0 0 0 0 0 0 0 0 0 0 0 0 0 0 0 0 0 0 0 0 0 0 0 0 0 0 0 0 0 0 0 0
0 0 0 0 0 0 0 0 0 0 0 0 0 0 0 0 0 0 0 0 0 0 0 0 0 0 0 0 0 0 0 0 0 0 0 0 0 0 0 0 0 0 0 0 0 0 0
0 0 0 0 0 0 0 0 0 0 0 0 0 0 0 0 0 0 0 0 0 0 0 0 0 0 0 0 0 0 0 0 0 0 0 0 0 0 0 0 0 0 0 0 0 0 0
0 0 0 0 0 0 0 0 0 0 0 0 -0 0 0 0 0 0 0 0 0 0 0 0 0 0 0 0 0 0 0 0 0 0 0 0 0 0 0 0 0 0 0 0 0 -0 0
0 0 0 0 0 0 0 0 0 0 0 0 0 0 0 0 0 0 0 0 0 0 0 0 0 0 0 0 0 0 0 0 0 0 0 0 0 0 0 0 0 0 0 0 0 0 0
0 0 0 0 0 0 0 0 0 0 0 0 0 0 0 0 0 0 0 0 0 0 0 0 0 0 0 0 0 0 0 0 0 0 0 0 0 0 0 0 0 0 0 -0 0 0 -0
0 0 0 0 0 0 0 0 0 0 0 0 0 0 0 0 0 0 0 0 0 0 0 0 0 0 0 0 0 0 0 0 0 0 0 0 0 0 0 0 0 0 -0 0 0 -0 0
0 0 0 0 0 0 0 0 0 0 0 0 0 0 0 0 0 0 0 0 0 0 0 0 0 0 0 0 0 0 0 0 0 0 0 0 0 0 0 0 0 0 0 0 0 0 0
Wind_Speed_500mb
64 63 60 58 56 53 48 41 36 33 27 24 23 23 24 23 19 17 19 22 24 21 18 17 21 18 18 23 18 14 17 20 22 28 35 35 44 16 8 5 9 8 8 19 31 24 11
63 64 63 60 57 54 50 46 38 31 26 23 22 23 24 23 20 19 20 21 20 17 13 14 17 20 18 19 15 13 15 14 22 26 29 30 21 20 8 5 6 10 16 28 14 11 4
61 62 63 62 59 56 51 48 43 33 25 20 20 21 22 22 21 19 17 14 12 9 9 10 12 17 11 11 5 6 11 15 18 18 23 24 18 13 13 8 10 11 12 12 4 8 8
60 60 60 61 61 58 54 49 45 39 31 21 16 17 18 20 20 18 15 11 6 2 6 9 12 15 4 5 3 13 15 15 15 20 24 20 11 5 7 6 13 10 10 11 15 14 2
59 60 61 60 60 59 56 52 48 42 36 28 15 11 12 17 18 15 11 11 5 6 8 12 15 8 3 2 5 3 3 7 10 10 20 23 11 9 6 8 10 13 4 9 16 16 7
60 61 62 62 60 58 56 54 50 46 40 33 21 8 5 9 12 13 8 7 11 10 10 14 9 3 4 4 8 10 11 13 10 8 11 14 10 7 7 10 4 9 6 9 12 13 5
59 63 64 65 62 59 57 56 52 49 44 37 26 9 1 5 6 5 10 4 7 3 18 15 20 19 26 13 13 15 20 15 16 5 2 9 11 4 9 10 11 6 7 10 10 13 8
59 62 66 66 65 61 58 57 56 51 46 38 30 13 3 6 4 5 8 11 11 13 15 15 14 24 22 23 12 10 10 10 8 8 5 11 4 12 6 6 7 8 6 8 13 11 9
60 63 66 69 67 63 60 59 59 55 48 40 29 17 4 11 4 9 15 13 11 15 4 9 5 6 6 3 4 27 13 7 7 5 9 11 15 0 8 2 1 3 6 6 13 10 10
62 64 66 68 68 66 64 64 63 59 52 43 31 18 6 13 5 9 2 9 16 11 8 7 2 8 8 2 7 35 24 5 2 10 8 9 7 4 5 4 5 5 6 8 14 9 16
61 64 66 66 67 68 66 65 65 62 55 46 33 17 5 21 6 7 10 19 13 2 5 2 5 7 24 13 10 28 22 9 3 7 7 17 4 5 4 2 4 12 7 11 11 6 8
60 61 63 65 66 69 70 68 65 63 58 48 32 14 3 10 12 7 19 15 1 9 2 3 7 10 10 19 8 23 23 19 6 5 4 7 9 5 2 4 6 6 8 7 7 5 3
58 59 61 63 65 68 70 69 66 65 60 44 26 11 8 13 3 14 20 1 9 8 7 11 6 9 7 12 9 12 11 12 6 11 10 15 8 2 4 6 5 15 12 9 12 9 9
56 58 59 61 64 68 70 71 69 66 62 36 22 20 24 13 9 21 11 9 5 3 4 4 9 5 6 12 4 14 9 10 5 8 2 1 12 5 2 3 7 2 11 9 9 6 11
53 55 56 58 62 66 68 70 68 66 59 26 21 25 20 15 19 22 6 10 5 1 5 4 6 7 4 3 4 13 5 4 5 4 3 3 9 8 5 5 9 5 3 4 3 2 7
49 52 55 57 61 65 66 69 68 63 59 22 13 19 23 20 20 19 9 4 1 6 6 4 2 3 4 5 5 10 6 5 2 7 7 6 13 9 6 4 2 9 13 4 5 6 10
45 49 51 54 58 62 65 67 68 63 57 30 5 6 27 19 18 10 7 2 5 9 22 2 6 4 4 3 2 4 8 9 3 2 3 5 7 10 4 10 14 4 3 3 6 7 8
44 46 48 51 56 60 64 66 66 64 54 41 10 6 27 12 11 6 3 8 14 13 17 8 5 3 3 2 6 7 10 10 5 3 7 5 7 9 24 25 5 11 15 14 9 10 11
42 44 45 48 52 57 62 63 63 60 54 42 11 8 20 6 7 7 12 9 7 15 10 11 7 9 8 3 7 6 7 11 36 3 3 3 4 9 17 10 2 7 8 9 2 5 25
36 39 42 45 49 53 59 60 59 55 47 34 12 8 15 23 13 6 6 7 10 18 5 11 4 11 11 5 5 10 9 11 6 12 37 14 10 17 17 26 7 15 20 17 16 12 22
35 38 40 41 47 49 53 56 57 53 44 24 16 8 10 8 11 9 2 5 7 13 11 13 7 10 3 8 8 11 8 9 18 34 6 6 13 15 23 37 28 34 39 38 32 40 26
35 36 38 37 42 47 52 53 54 52 45 39 11 11 11 7 13 8 9 6 7 8 5 8 3 12 5 10 14 29 7 6 13 9 4 1 11 7 9 25 24 27 31 38 36 31 28
33 34 34 32 38 45 50 50 51 50 48 26 24 16 8 6 7 3 2 4 6 11 11 14 10 11 13 12 32 53 56 53 32 13 7 7 5 3 10 9 17 14 12 7 6 4 7
29 31 33 35 40 42 47 46 46 48 47 36 29 18 9 7 2 5 2 12 7 9 10 30 36 7 7 48 50 44 40 40 30 26 31 8 3 3 10 9 6 8 2 3 7 17 16
28 30 31 31 38 40 42 40 38 39 39 34 28 18 8 6 9 20 1 8 22 27 15 15 13 24 44 26 7 11 10 8 6 6 7 4 2 7 4 6 23 12 8 6 10 33 15
34 32 32 28 36 34 35 35 33 33 34 31 24 22 10 7 8 11 5 6 5 6 14 9 27 25 16 6 6 3 5 5 9 13 8 2 3 7 5 5 9 7 6 27 2 22 6
40 31 24 30 33 31 31 30 31 31 31 30 22 20 11 9 13 10 9 5 7 4 6 12 19 13 18 6 5 1 6 4 4 8 8 10 9 5 6 9 16 8 16 19 5 9 55
33 32 28 29 32 30 28 28 29 31 30 28 25 17 20 13 40 20 15 18 15 10 4 10 13 4 7 7 2 4 3 6 4 8 9 6 2 5 4 7 13 11 30 2 19 71 62
35 34 34 32 27 27 27 26 30 35 34 29 23 25 28 25 36 60 59 53 56 49 31 10 7 5 6 5 0 2 6 5 6 8 1 7 10 4 13 12 31 70 46 65 60 55 67
Wind_Direction_500mb
41 39 38 37 36 35 35 34 33 36 42 44 41 36 27 23 35 61 80 99 108 105 91 62 48 47 75 88 99 83 58 49 44 40 36 32 31 48 64 348 11 58 323 306 317 312 321
39 38 37 35 33 33 32 32 31 30 33 37 36 32 31 39 54 73 89 101 108 104 79 55 44 43 83 84 96 85 57 45 33 43 36 26 12 10 86 43 88 322 304 313 334 339 323
36 36 35 33 32 29 28 28 28 26 23 25 31 33 40 51 64 71 87 102 113 98 48 21 13 19 69 90 92 49 39 37 47 28 15 2 1 350 331 2 335 328 352 345 2 329 302
34 32 32 30 29 27 25 24 24 23 20 11 20 32 46 63 72 67 67 78 103 77 16 358 345 347 113 164 109 58 67 67 47 21 7 14 357 28 35 324 356 29 50 14 294 322 319
31 29 28 28 26 24 22 21 19 18 17 12 4 23 51 85 77 64 55 39 320 291 314 317 321 342 125 305 287 282 23 9 16 17 357 7 26 56 47 65 17 7 278 308 315 322 291
26 25 24 23 23 21 19 18 17 14 13 11 6 3 46 113 88 70 46 335 332 262 293 309 314 299 201 326 308 281 305 285 286 321 341 5 43 63 42 60 292 281 317 265 260 292 345
23 19 19 17 18 18 16 15 13 12 10 8 6 358 276 153 123 69 17 347 358 360 307 273 277 285 292 300 291 282 274 286 250 289 72 10 56 259 248 178 209 234 204 243 262 273 306
19 17 15 14 13 14 15 14 11 9 5 4 3 357 275 173 147 30 58 73 42 336 311 320 276 264 275 281 299 348 285 233 187 209 105 18 271 231 260 179 195 201 226 273 289 285 310
16 14 12 11 11 12 12 12 9 7 3 356 358 354 230 163 149 108 95 64 353 333 289 313 29 40 41 272 268 335 305 254 194 189 190 160 245 253 229 178 45 281 179 265 246 294 257
13 11 11 10 10 12 10 8 5 3 1 353 349 347 242 195 204 187 10 345 332 323 59 311 36 42 351 308 85 32 16 285 5 235 169 226 298 292 283 233 122 321 195 247 279 326 302
11 10 9 10 9 9 8 7 3 359 357 349 340 337 288 203 198 200 324 324 315 299 68 295 68 46 48 83 344 5 7 21 287 257 134 251 287 295 265 233 153 234 326 270 286 268 3
8 8 8 9 8 6 5 6 5 358 356 347 344 343 308 198 205 259 314 327 251 47 170 9 47 3 43 29 39 348 5 6 336 16 11 244 308 75 118 28 110 324 331 13 49 72 14
6 5 6 6 5 4 1 4 6 360 359 354 2 27 91 110 125 315 320 248 44 117 350 350 344 23 85 358 13 20 356 8 28 9 355 336 334 339 57 25 4 43 42 336 347 0 234
3 2 2 3 3 3 360 359 6 3 3 11 28 74 99 107 15 348 358 58 90 7 18 332 20 30 90 15 10 335 11 358 2 70 53 41 319 338 176 206 245 218 145 154 271 246 274
358 359 359 1 1 3 2 358 4 7 6 29 69 92 71 41 4 352 2 62 184 217 291 8 358 64 344 13 21 20 344 245 219 141 109 294 258 282 279 171 126 183 175 190 156 254 286
355 356 357 358 359 2 2 1 359 9 9 21 78 87 33 11 354 352 73 142 119 359 329 83 143 175 231 280 14 19 314 231 238 214 141 259 290 251 297 337 172 165 160 57 352 268 253
352 353 354 354 355 358 1 1 359 1 10 13 47 72 9 355 359 30 97 269 316 10 12 203 217 274 239 289 231 253 242 285 129 341 167 168 142 273 8 222 213 196 196 133 184 199 226
347 350 351 352 354 356 358 1 358 358 1 15 37 54 3 17 44 39 62 320 344 354 1 353 89 168 229 268 258 254 239 225 49 178 290 201 183 246 248 257 207 193 205 161 152 220 230
345 346 349 351 354 357 359 2 3 360 0 2 11 0 15 29 73 3 327 329 7 10 12 13 356 46 22 309 334 249 265 272 312 295 281 199 305 324 321 360 350 198 206 209 95 28 251
342 343 348 352 353 357 359 3 6 5 4 3 5 16 25 58 66 109 16 343 325 356 100 5 334 71 16 316 243 281 261 292 332 272 293 247 202 200 241 266 229 262 262 237 221 254 262
337 340 343 350 354 358 2 4 8 11 13 16 30 50 17 338 360 8 350 3 349 359 350 4 49 89 30 283 273 253 267 290 299 295 297 144 240 234 250 262 264 269 272 270 245 251 257
328 334 340 348 354 358 1 3 7 14 19 39 46 7 349 340 324 339 1 41 6 327 290 317 106 312 303 235 226 290 271 233 232 322 163 234 276 299 273 257 260 267 264 260 270 269 262
323 329 338 345 352 357 359 1 5 12 21 34 26 5 344 340 347 20 271 31 313 327 276 244 336 312 286 258 311 294 277 267 251 276 264 232 234 300 269 319 310 286 261 266 288 291 205
314 322 330 338 344 350 352 356 2 7 14 19 16 8 353 289 327 232 238 327 266 259 251 285 302 221 257 313 304 288 274 270 266 259 214 200 209 216 279 330 276 240 88 190 309 269 268
309 315 316 326 337 343 344 348 356 3 4 5 7 10 352 286 269 299 172 274 294 292 268 266 298 309 308 311 341 342 336 6 69 41 136 179 121 304 252 242 287 291 47 351 296 297 290
301 305 313 323 331 334 336 339 347 359 358 354 354 356 342 314 253 268 301 262 279 293 322 270 317 335 345 48 42 323 273 320 327 331 197 326 208 156 335 267 286 247 299 329 140 291 159
288 290 303 322 320 321 322 329 338 350 354 348 343 339 330 276 276 259 238 239 251 247 247 303 338 333 1 36 20 303 284 308 298 300 305 311 309 230 242 245 276 218 338 359 2 295 316
276 280 286 304 301 303 311 317 328 336 348 346 338 331 328 278 288 263 247 237 240 215 180 321 336 284 350 52 86 294 232 277 289 252 267 259 185 250 299 270 284 194 347 105 283 302 291
271 279 285 288 300 294 301 306 320 325 334 339 337 324 319 293 280 294 290 279 263 260 265 248 254 257 247 98 220 8 274 262 196 281 54 276 202 254 204 233 278 296 296 305 303 300 307
Wind_Speed_850mb
64 63 60 58 56 53 48 41 36 33 27 24 23 23 24 23 19 17 19 22 24 21 18 17 21 18 18 23 18 14 17 20 22 28 35 35 44 16 8 5 9 8 8 19 31 24 11
63 64 63 60 57 54 50 46 38 31 26 23 22 23 24 23 20 19 20 21 20 17 13 14 17 20 18 19 15 13 15 14 22 26 29 30 21 20 8 5 6 10 16 28 14 11 4
61 62 63 62 59 56 51 48 43 33 25 20 20 21 22 22 21 19 17 14 12 9 9 10 12 17 11 11 5 6 11 15 18 18 23 24 18 13 13 8 10 11 12 12 4 8 8
60 60 60 61 61 58 54 49 45 39 31 21 16 17 18 20 20 18 15 11 6 2 6 9 12 15 4 5 3 13 15 15 15 20 24 20 11 5 7 6 13 10 10 11 15 14 2
59 60 61 60 60 59 56 52 48 42 36 28 15 11 12 17 18 15 11 11 5 6 8 12 15 8 3 2 5 3 3 7 10 10 20 23 11 9 6 8 10 13 4 9 16 16 7
60 61 62 62 60 58 56 54 50 46 40 33 21 8 5 9 12 13 8 7 11 10 10 14 9 3 4 4 8 10 11 13 10 8 11 14 10 7 7 10 4 9 6 9 12 13 5
59 63 64 65 62 59 57 56 52 49 44 37 26 9 1 5 6 5 10 4 7 3 18 15 20 19 26 13 13 15 20 15 16 5 2 9 11 4 9 10 11 6 7 10 10 13 8
59 62 66 66 65 61 58 57 56 51 46 38 30 13 3 6 4 5 8 11 11 13 15 15 14 24 22 23 12 10 10 10 8 8 5 11 4 12 6 6 7 8 6 8 13 11 9
60 63 66 69 67 63 60 59 59 55 48 40 29 17 4 11 4 9 15 13 11 15 4 9 5 6 6 3 4 27 13 7 7 5 9 11 15 0 8 2 1 3 6 6 13 10 10
62 64 66 68 68 66 64 64 63 59 52 43 31 18 6 13 5 9 2 9 16 11 8 7 2 8 8 2 7 35 24 5 2 10 8 9 7 4 5 4 5 5 6 8 14 9 16
61 64 66 66 67 68 66 65 65 62 55 46 33 17 5 21 6 7 10 19 13 2 5 2 5 7 24 13 10 28 22 9 3 7 7 17 4 5 4 2 4 12 7 11 11 6 8
60 61 63 65 66 69 70 68 65 63 58 48 32 14 3 10 12 7 19 15 1 9 2 3 7 10 10 19 8 23 23 19 6 5 4 7 9 5 2 4 6 6 8 7 7 5 3
58 59 61 63 65 68 70 69 66 65 60 44 26 11 8 13 3 14 20 1 9 8 7 11 6 9 7 12 9 12 11 12 6 11 10 15 8 2 4 6 5 15 12 9 12 9 9
56 58 59 61 64 68 70 71 69 66 62 36 22 20 24 13 9 21 11 9 5 3 4 4 9 5 6 12 4 14 9 10 5 8 2 1 12 5 2 3 7 2 11 9 9 6 11
53 55 56 58 62 66 68 70 68 66 59 26 21 25 20 15 19 22 6 10 5 1 5 4 6 7 4 3 4 13 5 4 5 4 3 3 9 8 5 5 9 5 3 4 3 2 7
49 52 55 57 61 65 66 69 68 63 59 22 13 19 23 20 20 19 9 4 1 6 6 4 2 3 4 5 5 10 6 5 2 7 7 6 13 9 6 4 2 9 13 4 5 6 10
45 49 51 54 58 62 65 67 68 63 57 30 5 6 27 19 18 10 7 2 5 9 22 2 6 4 4 3 2 4 8 9 3 2 3 5 7 10 4 10 14 4 3 3 6 7 8
44 46 48 51 56 60 64 66 66 64 54 41 10 6 27 12 11 6 3 8 14 13 17 8 5 3 3 2 6 7 10 10 5 3 7 5 7 9 24 25 5 11 15 14 9 10 11
42 44 45 48 52 57 62 63 63 60 54 42 11 8 20 6 7 7 12 9 7 15 10 11 7 9 8 3 7 6 7 11 36 3 3 3 4 9 17 10 2 7 8 9 2 5 25
36 39 42 45 49 53 59 60 59 55 47 34 12 8 15 23 13 6 6 7 10 18 5 11 4 11 11 5 5 10 9 11 6 12 37 14 10 17 17 26 7 15 20 17 16 12 22
35 38 40 41 47 49 53 56 57 53 44 24 16 8 10 8 11 9 2 5 7 13 11 13 7 10 3 8 8 11 8 9 18 34 6 6 13 15 23 37 28 34 39 38 32 40 26
35 36 38 37 42 47 52 53 54 52 45 39 11 11 11 7 13 8 9 6 7 8 5 8 3 12 5 10 14 29 7 6 13 9 4 1 11 7 9 25 24 27 31 38 36 31 28
33 34 34 32 38 45 50 50 51 50 48 26 24 16 8 6 7 3 2 4 6 11 11 14 10 11 13 12 32 53 56 53 32 13 7 7 5 3 10 9 17 14 12 7 6 4 7
29 31 33 35 40 42 47 46 46 48 47 36 29 18 9 7 2 5 2 12 7 9 10 30 36 7 7 48 50 44 40 40 30 26 31 8 3 3 10 9 6 8 2 3 7 17 16
28 30 31 31 38 40 42 40 38 39 39 34 28 18 8 6 9 20 1 8 22 27 15 15 13 24 44 26 7 11 10 8 6 6 7 4 2 7 4 6 23 12 8 6 10 33 15
34 32 32 28 36 34 35 35 33 33 34 31 24 22 10 7 8 11 5 6 5 6 14 9 27 25 16 6 6 3 5 5 9 13 8 2 3 7 5 5 9 7 6 27 2 22 6
40 31 24 30 33 31 31 30 31 31 31 30 22 20 11 9 13 10 9 5 7 4 6 12 19 13 18 6 5 1 6 4 4 8 8 10 9 5 6 9 16 8 16 19 5 9 55
33 32 28 29 32 30 28 28 29 31 30 28 25 17 20 13 40 20 15 18 15 10 4 10 13 4 7 7 2 4 3 6 4 8 9 6 2 5 4 7 13 11 30 2 19 71 62
35 34 34 32 27 27 27 26 30 35 34 29 23 25 28 25 36 60 59 53 56 49 31 10 7 5 6 5 0 2 6 5 6 8 1 7 10 4 13 12 31 70 46 65 60 55 67
Wind_Direction_850mb
41 39 38 37 36 35 35 34 33 36 42 44 41 36 27 23 35 61 80 99 108 105 91 62 48 47 75 88 99 83 58 49 44 40 36 32 31 48 64 348 11 58 323 306 317 312 321
39 38 37 35 33 33 32 32 31 30 33 37 36 32 31 39 54 73 89 101 108 104 79 55 44 43 83 84 96 85 57 45 33 43 36 26 12 10 86 43 88 322 304 313 334 339 323
36 36 35 33 32 29 28 28 28 26 23 25 31 33 40 51 64 71 87 102 113 98 48 21 13 19 69 90 92 49 39 37 47 28 15 2 1 350 331 2 335 328 352 345 2 329 302
34 32 32 30 29 27 25 24 24 23 20 11 20 32 46 63 72 67 67 78 103 77 16 358 345 347 113 164 109 58 67 67 47 21 7 14 357 28 35 324 356 29 50 14 294 322 319
31 29 28 28 26 24 22 21 19 18 17 12 4 23 51 85 77 64 55 39 320 291 314 317 321 342 125 305 287 282 23 9 16 17 357 7 26 56 47 65 17 7 278 308 315 322 291
26 25 24 23 23 21 19 18 17 14 13 11 6 3 46 113 88 70 46 335 332 262 293 309 314 299 201 326 308 281 305 285 286 321 341 5 43 63 42 60 292 281 317 265 260 292 345
23 19 19 17 18 18 16 15 13 12 10 8 6 358 276 153 123 69 17 347 358 360 307 273 277 285 292 300 291 282 274 286 250 289 72 10 56 259 248 178 209 234 204 243 262 273 306
19 17 15 14 13 14 15 14 11 9 5 4 3 357 275 173 147 30 58 73 42 336 311 320 276 264 275 281 299 348 285 233 187 209 105 18 271 231 260 179 195 201 226 273 289 285 310
16 14 12 11 11 12 12 12 9 7 3 356 358 354 230 163 149 108 95 64 353 333 289 313 29 40 41 272 268 335 305 254 194 189 190 160 245 253 229 178 45 281 179 265 246 294 257
13 11 11 10 10 12 10 8 5 3 1 353 349 347 242 195 204 187 10 345 332 323 59 311 36 42 351 308 85 32 16 285 5 235 169 226 298 292 283 233 122 321 195 247 279 326 302
11 10 9 10 9 9 8 7 3 359 357 349 340 337 288 203 198 200 324 324 315 299 68 295 68 46 48 83 344 5 7 21 287 257 134 251 287 295 265 233 153 234 326 270 286 268 3
8 8 8 9 8 6 5 6 5 358 356 347 344 343 308 198 205 259 314 327 251 47 170 9 47 3 43 29 39 348 5 6 336 16 11 244 308 75 118 28 110 324 331 13 49 72 14
6 5 6 6 5 4 1 4 6 360 359 354 2 27 91 110 125 315 320 248 44 117 350 350 344 23 85 358 13 20 356 8 28 9 355 336 334 339 57 25 4 43 42 336 347 0 234
3 2 2 3 3 3 360 359 6 3 3 11 28 74 99 107 15 348 358 58 90 7 18 332 20 30 90 15 10 335 11 358 2 70 53 41 319 338 176 206 245 218 145 154 271 246 274
358 359 359 1 1 3 2 358 4 7 6 29 69 92 71 41 4 352 2 62 184 217 291 8 358 64 344 13 21 20 344 245 219 141 109 294 258 282 279 171 126 183 175 190 156 254 286
355 356 357 358 359 2 2 1 359 9 9 21 78 87 33 11 354 352 73 142 119 359 329 83 143 175 231 280 14 19 314 231 238 214 141 259 290 251 297 337 172 165 160 57 352 268 253
352 353 354 354 355 358 1 1 359 1 10 13 47 72 9 355 359 30 97 269 316 10 12 203 217 274 239 289 231 253 242 285 129 341 167 168 142 273 8 222 213 196 196 133 184 199 226
347 350 351 352 354 356 358 1 358 358 1 15 37 54 3 17 44 39 62 320 344 354 1 353 89 168 229 268 258 254 239 225 49 178 290 201 183 246 248 257 207 193 205 161 152 220 230
345 346 349 351 354 357 359 2 3 360 0 2 11 0 15 29 73 3 327 329 7 10 12 13 356 46 22 309 334 249 265 272 312 295 281 199 305 324 321 360 350 198 206 209 95 28 251
342 343 348 352 353 357 359 3 6 5 4 3 5 16 25 58 66 109 16 343 325 356 100 5 334 71 16 316 243 281 261 292 332 272 293 247 202 200 241 266 229 262 262 237 221 254 262
337 340 343 350 354 358 2 4 8 11 13 16 30 50 17 338 360 8 350 3 349 359 350 4 49 89 30 283 273 253 267 290 299 295 297 144 240 234 250 262 264 269 272 270 245 251 257
328 334 340 348 354 358 1 3 7 14 19 39 46 7 349 340 324 339 1 41 6 327 290 317 106 312 303 235 226 290 271 233 232 322 163 234 276 299 273 257 260 267 264 260 270 269 262
323 329 338 345 352 357 359 1 5 12 21 34 26 5 344 340 347 20 271 31 313 327 276 244 336 312 286 258 311 294 277 267 251 276 264 232 234 300 269 319 310 286 261 266 288 291 205
314 322 330 338 344 350 352 356 2 7 14 19 16 8 353 289 327 232 238 327 266 259 251 285 302 221 257 313 304 288 274 270 266 259 214 200 209 216 279 330 276 240 88 190 309 269 268
309 315 316 326 337 343 344 348 356 3 4 5 7 10 352 286 269 299 172 274 294 292 268 266 298 309 308 311 341 342 336 6 69 41 136 179 121 304 252 242 287 291 47 351 296 297 290
301 305 313 323 331 334 336 339 347 359 358 354 354 356 342 314 253 268 301 262 279 293 322 270 317 335 345 48 42 323 273 320 327 331 197 326 208 156 335 267 286 247 299 329 140 291 159
288 290 303 322 320 321 322 329 338 350 354 348 343 339 330 276 276 259 238 239 251 247 247 303 338 333 1 36 20 303 284 308 298 300 305 311 309 230 242 245 276 218 338 359 2 295 316
276 280 286 304 301 303 311 317 328 336 348 346 338 331 328 278 288 263 247 237 240 215 180 321 336 284 350 52 86 294 232 277 289 252 267 259 185 250 299 270 284 194 347 105 283 302 291
271 279 285 288 300 294 301 306 320 325 334 339 337 324 319 293 280 294 290 279 263 260 265 248 254 257 247 98 220 8 274 262 196 281 54 276 202 254 204 233 278 296 296 305 303 300 307